Ellsworth AFB, SD

9:17 AM MDT on March 29, 2017 (GMT -0600)
Ellsworth Air Force Base

Weather History for KRCA - January, 2014

Change the Weather History Date:

Thursday, January 9, 2014

  Actual Average Record
Temperature  
Mean Temperature 32 °F -  
Max Temperature 43 °F 34 °F 60 °F (2001)
Min Temperature 22 °F 12 °F -4 °F (1997)
Degree Days  
Heating Degree Days 32    
Moisture  
Dew Point 22 °F    
Average Humidity 69    
Maximum Humidity 83    
Minimum Humidity 47    
Precipitation  
Precipitation 0.00 in - - ()
Sea Level Pressure  
Sea Level Pressure 29.75 in    
Wind  
Wind Speed 6 mph (West)    
Max Wind Speed 12 mph    
Max Gust Speed -    
Visibility 10 miles    
Events      
Averages and records for this station are not official NWS values.
T = Trace of Precipitation, MM = Missing Value Source: NWS Daily Summary

Daily Weather History Graph

Daily Weather History Graph

Search for Another Location

Airport or City:

Trip Planner

Search our weather history database for the weather conditions in past years. The results will help you decide how hot, cold, wet, or windy it might be!

Date:

Astronomy

Jan. 09, 2014 Rise Set
Actual Time 7:26 AM MST 4:32 PM MST
Civil Twilight 6:54 AM MST 5:05 PM MST
Nautical Twilight 6:18 AM MST 5:41 PM MST
Astronomical Twilight 5:43 AM MST 6:16 PM MST
Moon 12:05 PM MST (1/9) 1:31 AM MST (1/9)
Length of Visible Light 10h 11m
Length of Day
9h 06m
Waxing Gibbous, 66% of the Moon is Illuminated
Jan 9
Waxing Gibbous
Jan 15
Full
Jan 23
Last Quarter
Jan 30
New
Feb 6
First Quarter

Hourly Weather History & Observations

Time (MST) Temp. Windchill Dew Point Humidity Pressure Visibility Wind Dir Wind Speed Gust Speed Precip Events Conditions
12:58 AM 25.2 °F 15.7 °F 19.8 °F 80% 29.93 in 10.0 mi West 9.2 mph - N/A   Clear
1:58 AM 23.0 °F 13.9 °F 17.8 °F 80% 29.92 in 10.0 mi WSW 8.1 mph - N/A   Clear
2:58 AM 27.1 °F - 19.9 °F 74% 29.86 in 10.0 mi South 1.2 mph - N/A   Clear
3:58 AM 22.6 °F 18.0 °F 16.9 °F 79% 29.86 in 10.0 mi WSW 3.5 mph - N/A   Clear
4:58 AM 22.8 °F 18.2 °F 17.4 °F 80% 29.85 in 10.0 mi West 3.5 mph - N/A   Clear
5:58 AM 28.2 °F 24.4 °F 19.8 °F 71% 29.81 in 10.0 mi WSW 3.5 mph - N/A   Clear
6:58 AM 24.6 °F 17.7 °F 17.8 °F 75% 29.82 in 10.0 mi West 5.8 mph - N/A   Clear
7:58 AM 29.1 °F 24.1 °F 20.5 °F 70% 29.79 in 10.0 mi SW 4.6 mph - N/A   Clear
8:58 AM 34.9 °F 29.9 °F 23.5 °F 63% 29.77 in 10.0 mi SSW 5.8 mph - N/A   Clear
9:58 AM 37.2 °F 30.6 °F 24.6 °F 60% 29.77 in 10.0 mi SW 9.2 mph - N/A   Clear
10:58 AM 42.8 °F 38.6 °F 24.3 °F 48% 29.72 in 10.0 mi SW 6.9 mph - N/A   Clear
11:58 AM 43.9 °F - 24.6 °F 47% 29.68 in 10.0 mi West 2.3 mph - N/A   Clear
12:58 PM 37.4 °F 29.8 °F 24.8 °F 60% 29.67 in 10.0 mi North 11.5 mph - N/A   Clear
1:58 PM 37.6 °F 33.1 °F 24.6 °F 60% 29.67 in 10.0 mi North 5.8 mph - N/A   Partly Cloudy
2:58 PM 38.1 °F - 25.0 °F 59% 29.67 in 10.0 mi North 1.2 mph - 0.00 in   Mostly Cloudy
4:58 PM 33.3 °F - 24.6 °F 71% 29.70 in 10.0 mi SSE 2.3 mph - N/A   Clear
5:58 PM 30.0 °F - 23.4 °F 76% 29.68 in 10.0 mi Calm Calm - N/A   Clear
6:58 PM 28.2 °F - 23.5 °F 83% 29.70 in 10.0 mi West 2.3 mph - N/A   Partly Cloudy
7:58 PM 30.0 °F 26.5 °F 25.2 °F 82% 29.69 in 10.0 mi WNW 3.5 mph - N/A   Overcast
8:58 PM 32.7 °F - 25.3 °F 74% 29.67 in 10.0 mi Calm Calm - N/A   Overcast
9:58 PM 31.6 °F 26.0 °F 25.7 °F 79% 29.66 in 10.0 mi WNW 5.8 mph - N/A   Overcast
10:58 PM 33.1 °F 26.1 °F 24.6 °F 71% 29.65 in 10.0 mi WNW 8.1 mph - N/A   Overcast
11:58 PM 38.1 °F 32.9 °F 22.8 °F 54% 29.62 in 10.0 mi NNW 6.9 mph - N/A   Mostly Cloudy